User: anonymous   Login
Location: ?????
(42.2640°N, 43.4211°E)
Time: 12:49:56
(UTC+00:00)
Language:

COBE Rocket - Orbit

View from above orbital plane
View from above orbital plane
View from above satellite
View from above satellite

Ground track
Ground track

The orbit data is extracted from the following two-line orbital elements,

1 20323U 89089B   20294.61001040 +.00000073 +00000-0 +27913-4 0  9999
2 20323 097.1088 060.5393 0071360 196.0763 163.8169 14.48363249631514
Epoch (UTC): 20 October 2020 14:38:24
Eccentricity: 0.0071360
inclination: 97.1088°
perigee height: 680 km
apogee height: 782 km
right ascension of ascending node: 60.5393°
argument of perigee: 196.0763°
revolutions per day: 14.48363249
mean anomaly at epoch: 163.8169°
orbit number at epoch: 63151

The dashed part of the orbit path shows where the satellite is in the earth's shadow,  

DLR